COSMOS 1275 DEB, 12704

Orbit data source: Space-Track

COSMOS 1275 DEB, 12704 is space debris in LEO originally from a launch on Thu, 04 Jun 1981 UTC launched from the Plesetsk Missile And Space Complex (PKMTR). Debris objects in space refer to the collection of defunct objects orbiting the Earth. Examples of debris include non-operational satellites, rocket bodies, and fragments generated from explosions, collisions, or faulty payload assembly.

Loading next visibility...
Identifier
12704, 1981-053AY
Orbit
LEO
Country
Flag of CISCIS
Related business
Manufacturer
Unknown
Mission
Spacecraft
Bus & Motor
Unknown
Mass
Unknown
Launch date (UTC)
1981-06-04 (45 years ago)
Launch vehicle
Unknown
Launch site
Plesetsk Missile And Space Complex (PKMTR)
Object type
Payload
Rocket body
Debris
Shape & HBR
Unknown shape, 0.1 m
Radar Cross Section
Small (<0.1 m²)

Expand to show TLE details & history
Last TLE update: 13 hours ago

TLE from 13 hours ago
0 COSMOS 1275 DEB
1 12704U 81053AY  26035.98254659  .00000487  00000-0  51576-3 0  9991
2 12704  82.9864 226.3938 0083664 349.9622 133.6430 13.71056508219107
Epoch: 2026-02-04T23:34Z
TLE epoch observation values (Epoch: 2026-02-04T23:34:52.025Z)
Latitude
55.17844°
Longitude
-92.5987°
Altitude
1,047.775 km
Speed
7.312 km/s
True Right ascension
02h 25m 02s
True Declination
55° 01' 24"
Sunlit
Object was in daylight at epoch
Visualization orbit readout
Latitude
Unknown
Longitude
Unknown
Altitude
Unknown
Speed
Unknown
Apparent Right ascension
Unknown
Apparent Declination
Unknown
Sunlit
N/A
Visualization observer readout
Local Sidereal Time
14:50:14
Azimuth
Unknown
Elevation
Unknown
Doppler factor
Unknown
Orbital elements
Apogee altitude
1,054.602 km
Perigee altitude
931.263 km
Semi-major axis
7,371.07 km
Eccentricity
0.00837
Inclination
82.9864°
RAAN
226.3938°
Arg. of periapsis
349.9622°
True anomaly
134.33179°
Mean anomaly
133.643°
Eccentric anomaly
133.98789°
Mean motion
3.42963 °/min
Orbital period
104.97 mins
BSTAR
0.00051576
Loading maneuver chart data...
Computing Atmospheric mass density...

Documentation

Showing up to 5 results
|